N76SAM KPVU-KSLC

Flight info

Callsign N76SAM
Flight time 1h 2m
Altitude 9000
Route FFU
Aircraft C172/L-VGD/A

Departure

Time 2026-04-24 02:44
Airport Provo Municipal Airport (KPVU)

Arrival

Time 2026-04-24 03:47
Airport Salt Lake City International Airport (KSLC)
Time Latitude Longitude Altitude Speed Heading
2026-04-24 02:27 40.21704 -111.71806 4501 ft 0 kts 328°
2026-04-24 02:34 40.21699 -111.71802 4501 ft 2 kts 328°
2026-04-24 02:35 40.21685 -111.71790 4501 ft 3 kts 328°
2026-04-24 02:35 40.21668 -111.71777 4501 ft 3 kts 328°
2026-04-24 02:35 40.21660 -111.71770 4501 ft 1 kts 319°
2026-04-24 02:35 40.21690 -111.71846 4501 ft 14 kts 313°
2026-04-24 02:36 40.21780 -111.71925 4501 ft 18 kts 326°
2026-04-24 02:36 40.21889 -111.72022 4501 ft 16 kts 326°
2026-04-24 02:36 40.21992 -111.72023 4501 ft 16 kts 10°
2026-04-24 02:36 40.22019 -111.72016 4501 ft 0 kts 11°
2026-04-24 02:37 40.22056 -111.72007 4501 ft 12 kts 12°
2026-04-24 02:37 40.22203 -111.71963 4501 ft 30 kts 13°
2026-04-24 02:37 40.22425 -111.71900 4501 ft 32 kts 12°
2026-04-24 02:37 40.22519 -111.71939 4501 ft 13 kts 321°
2026-04-24 02:38 40.22614 -111.72036 4501 ft 23 kts 294°
2026-04-24 02:38 40.22627 -111.72261 4501 ft 22 kts 271°
2026-04-24 02:38 40.22638 -111.72456 4501 ft 26 kts 274°
2026-04-24 02:38 40.22647 -111.72669 4501 ft 11 kts 280°
2026-04-24 02:39 40.22736 -111.72743 4501 ft 25 kts 324°
2026-04-24 02:39 40.22932 -111.72929 4501 ft 44 kts 324°
2026-04-24 02:39 40.23079 -111.73078 4501 ft 0 kts 179°
2026-04-24 02:39 40.23065 -111.73107 4501 ft 11 kts 234°
2026-04-24 02:40 40.23035 -111.73164 4501 ft 0 kts 224°
2026-04-24 02:41 40.23034 -111.73166 4501 ft 2 kts 224°
2026-04-24 02:42 40.23004 -111.73203 4501 ft 7 kts 201°
2026-04-24 02:42 40.22959 -111.73189 4501 ft 10 kts 147°
2026-04-24 02:42 40.22762 -111.73016 4501 ft 56 kts 146°
2026-04-24 02:42 40.22358 -111.72662 4546 ft 77 kts 146°
2026-04-24 02:43 40.21903 -111.72265 4692 ft 79 kts 146°
2026-04-24 02:43 40.21812 -111.72186 4726 ft 79 kts 146°
2026-04-24 02:43 40.21488 -111.71903 4838 ft 79 kts 146°
2026-04-24 02:44 40.21087 -111.71553 4858 ft 93 kts 146°
2026-04-24 02:44 40.20963 -111.71445 4877 ft 94 kts 146°
2026-04-24 02:44 40.20576 -111.71107 4987 ft 92 kts 146°
2026-04-24 02:44 40.20116 -111.70559 5141 ft 90 kts 111°
2026-04-24 02:45 40.20042 -111.69776 5335 ft 84 kts 96°
2026-04-24 02:45 40.19967 -111.69135 5520 ft 77 kts 99°
2026-04-24 02:45 40.19883 -111.68474 5720 ft 70 kts 99°
2026-04-24 02:45 40.19837 -111.68108 5835 ft 66 kts 99°
2026-04-24 02:46 40.19829 -111.67539 5979 ft 66 kts 60°
2026-04-24 02:46 40.20275 -111.67296 6082 ft 70 kts 11°
2026-04-24 02:46 40.20599 -111.66875 6221 ft 70 kts 72°
2026-04-24 02:46 40.20854 -111.66344 6360 ft 70 kts 48°
2026-04-24 02:47 40.21236 -111.65947 6494 ft 71 kts 32°
2026-04-24 02:47 40.21716 -111.65840 6626 ft 71 kts
2026-04-24 02:47 40.22199 -111.65699 6759 ft 71 kts 11°
2026-04-24 02:47 40.22688 -111.65569 6890 ft 72 kts 11°
2026-04-24 02:48 40.23182 -111.65439 7019 ft 72 kts 11°
2026-04-24 02:48 40.23672 -111.65309 7145 ft 73 kts 11°
2026-04-24 02:48 40.24169 -111.65167 7272 ft 73 kts 13°
2026-04-24 02:48 40.24664 -111.65012 7398 ft 73 kts 13°
2026-04-24 02:49 40.25162 -111.64857 7523 ft 73 kts 13°
2026-04-24 02:49 40.25657 -111.64703 7653 ft 72 kts 13°
2026-04-24 02:49 40.26148 -111.64553 7777 ft 73 kts 12°
2026-04-24 02:49 40.26695 -111.64304 7813 ft 88 kts 13°
2026-04-24 02:50 40.27260 -111.64004 7939 ft 86 kts 10°
2026-04-24 02:50 40.27780 -111.63670 8100 ft 82 kts 13°
2026-04-24 02:50 40.28285 -111.63325 8220 ft 82 kts 14°
2026-04-24 02:50 40.28780 -111.62953 8339 ft 82 kts 16°
2026-04-24 02:51 40.29267 -111.62577 8456 ft 81 kts 16°
2026-04-24 02:51 40.29741 -111.62208 8571 ft 80 kts 16°
2026-04-24 02:51 40.30214 -111.61837 8686 ft 79 kts 16°
2026-04-24 02:51 40.30678 -111.61469 8799 ft 77 kts 16°
2026-04-24 02:52 40.31134 -111.61103 8911 ft 76 kts 16°
2026-04-24 02:52 40.31577 -111.60742 9019 ft 74 kts 16°
2026-04-24 02:52 40.32019 -111.60384 9103 ft 76 kts 15°
2026-04-24 02:52 40.32506 -111.60036 9140 ft 84 kts 22°
2026-04-24 02:53 40.33070 -111.59715 9164 ft 95 kts 15°
2026-04-24 02:53 40.33694 -111.59286 9145 ft 106 kts 16°
2026-04-24 02:53 40.33819 -111.59202 9140 ft 108 kts 16°
2026-04-24 02:53 40.33971 -111.59100 9134 ft 109 kts 16°
2026-04-24 02:54 40.34659 -111.58646 9115 ft 114 kts 16°
2026-04-24 02:54 40.34991 -111.58430 9110 ft 115 kts 16°
2026-04-24 02:54 40.35716 -111.57959 9104 ft 117 kts 16°
2026-04-24 02:54 40.36447 -111.57485 9102 ft 117 kts 16°
2026-04-24 02:55 40.36933 -111.57171 9101 ft 117 kts 16°
2026-04-24 02:55 40.37667 -111.56696 9100 ft 118 kts 16°
2026-04-24 02:55 40.38401 -111.56222 9100 ft 118 kts 16°
2026-04-24 02:55 40.39137 -111.55747 9100 ft 118 kts 16°
2026-04-24 02:56 40.39872 -111.55272 9100 ft 118 kts 16°
2026-04-24 02:56 40.40606 -111.54797 9100 ft 118 kts 16°
2026-04-24 02:56 40.41341 -111.54322 9100 ft 118 kts 16°
2026-04-24 02:56 40.42076 -111.53847 9100 ft 118 kts 17°
2026-04-24 02:57 40.42807 -111.53359 9100 ft 118 kts 17°
2026-04-24 02:57 40.43539 -111.52862 9100 ft 119 kts 20°
2026-04-24 02:57 40.44032 -111.51967 9092 ft 130 kts 78°
2026-04-24 02:57 40.43795 -111.50891 9098 ft 122 kts 142°
2026-04-24 02:58 40.43089 -111.50642 9094 ft 98 kts 210°
2026-04-24 02:58 40.42641 -111.51207 9122 ft 89 kts 238°
2026-04-24 02:58 40.42176 -111.51778 9110 ft 94 kts 226°
2026-04-24 02:58 40.41645 -111.52285 9104 ft 96 kts 224°
2026-04-24 02:59 40.41100 -111.52795 9101 ft 96 kts 224°
2026-04-24 02:59 40.40552 -111.53308 9100 ft 97 kts 224°
2026-04-24 02:59 40.40005 -111.53821 9100 ft 97 kts 224°
2026-04-24 02:59 40.39449 -111.54322 9100 ft 97 kts 222°
2026-04-24 03:00 40.38876 -111.54798 9100 ft 98 kts 221°
2026-04-24 03:00 40.38305 -111.55279 9100 ft 97 kts 223°
2026-04-24 03:00 40.37754 -111.55789 9100 ft 97 kts 224°
2026-04-24 03:00 40.37214 -111.56295 9100 ft 97 kts 224°
2026-04-24 03:01 40.36666 -111.56808 9100 ft 97 kts 224°
2026-04-24 03:01 40.36118 -111.57321 9100 ft 97 kts 224°
2026-04-24 03:01 40.35571 -111.57833 9100 ft 97 kts 224°
2026-04-24 03:01 40.35024 -111.58345 9100 ft 97 kts 224°
2026-04-24 03:02 40.34477 -111.58856 9100 ft 97 kts 224°
2026-04-24 03:02 40.33932 -111.59374 9100 ft 96 kts 227°
2026-04-24 03:02 40.33485 -111.59996 9100 ft 92 kts 240°
2026-04-24 03:02 40.33139 -111.60698 9101 ft 92 kts 244°
2026-04-24 03:03 40.32808 -111.61412 9100 ft 92 kts 244°
2026-04-24 03:03 40.32496 -111.62138 9100 ft 91 kts 248°
2026-04-24 03:03 40.32213 -111.62880 9100 ft 91 kts 248°
2026-04-24 03:03 40.31953 -111.63633 9100 ft 91 kts 251°
2026-04-24 03:04 40.31709 -111.64393 9100 ft 90 kts 252°
2026-04-24 03:04 40.31494 -111.65165 9100 ft 90 kts 254°
2026-04-24 03:04 40.31288 -111.65943 9100 ft 90 kts 254°
2026-04-24 03:04 40.31082 -111.66719 9100 ft 90 kts 254°
2026-04-24 03:05 40.30876 -111.67496 9100 ft 90 kts 254°
2026-04-24 03:05 40.30691 -111.68269 9100 ft 90 kts 257°
2026-04-24 03:05 40.30637 -111.68521 9100 ft 90 kts 257°
2026-04-24 03:05 40.30604 -111.68674 9100 ft 90 kts 257°
2026-04-24 03:06 40.30446 -111.69420 9100 ft 90 kts 257°
2026-04-24 03:06 40.30276 -111.70229 9041 ft 94 kts 257°
2026-04-24 03:06 40.30124 -111.71071 9005 ft 95 kts 261°
2026-04-24 03:06 40.30035 -111.71684 8998 ft 93 kts 261°
2026-04-24 03:07 40.29947 -111.72308 8997 ft 92 kts 261°
2026-04-24 03:07 40.29830 -111.73129 8997 ft 91 kts 261°
2026-04-24 03:07 40.29716 -111.73933 8998 ft 91 kts 261°
2026-04-24 03:08 40.29601 -111.74741 8999 ft 90 kts 261°
2026-04-24 03:08 40.29492 -111.75764 9000 ft 90 kts 264°
2026-04-24 03:08 40.29436 -111.76369 9000 ft 90 kts 264°
2026-04-24 03:09 40.29413 -111.76614 9000 ft 90 kts 264°
2026-04-24 03:09 40.29355 -111.77246 9000 ft 90 kts 264°
2026-04-24 03:10 40.29298 -111.77866 9000 ft 90 kts 264°
2026-04-24 03:10 40.29224 -111.78676 9000 ft 90 kts 264°
2026-04-24 03:10 40.29149 -111.79487 9000 ft 90 kts 264°
2026-04-24 03:10 40.29074 -111.80298 9000 ft 90 kts 264°
2026-04-24 03:11 40.29000 -111.81108 9000 ft 90 kts 264°
2026-04-24 03:11 40.28933 -111.81919 9000 ft 90 kts 266°
2026-04-24 03:11 40.28884 -111.82732 9000 ft 90 kts 266°
2026-04-24 03:11 40.28815 -111.83540 9000 ft 90 kts 264°
2026-04-24 03:12 40.28747 -111.84165 9000 ft 90 kts 263°
2026-04-24 03:12 40.28652 -111.84933 9000 ft 90 kts 262°
2026-04-24 03:12 40.28551 -111.85739 9000 ft 90 kts 262°
2026-04-24 03:12 40.28450 -111.86544 9000 ft 90 kts 262°
2026-04-24 03:13 40.28348 -111.87350 9000 ft 90 kts 262°
2026-04-24 03:13 40.28251 -111.88157 9000 ft 90 kts 263°
2026-04-24 03:13 40.28153 -111.88964 9000 ft 90 kts 262°
2026-04-24 03:13 40.28051 -111.89771 9000 ft 90 kts 262°
2026-04-24 03:14 40.27950 -111.90578 9000 ft 90 kts 262°
2026-04-24 03:14 40.27850 -111.91373 9000 ft 90 kts 262°
2026-04-24 03:14 40.27749 -111.92181 9000 ft 90 kts 262°
2026-04-24 03:14 40.27663 -111.92863 9000 ft 90 kts 262°
2026-04-24 03:15 40.27562 -111.93669 9000 ft 90 kts 262°
2026-04-24 03:15 40.27536 -111.94144 8996 ft 90 kts 276°
2026-04-24 03:15 40.27601 -111.94373 8990 ft 92 kts 296°
2026-04-24 03:15 40.27645 -111.94450 8989 ft 94 kts 303°
2026-04-24 03:16 40.28116 -111.94772 9011 ft 100 kts 331°
2026-04-24 03:16 40.28620 -111.94980 9009 ft 101 kts 335°
2026-04-24 03:16 40.28940 -111.95112 9005 ft 101 kts 333°
2026-04-24 03:17 40.28972 -111.95126 9004 ft 101 kts 333°
2026-04-24 03:17 40.29643 -111.95420 9001 ft 102 kts 333°
2026-04-24 03:17 40.30322 -111.95719 9000 ft 102 kts 333°
2026-04-24 03:17 40.30985 -111.96012 9000 ft 102 kts 333°
2026-04-24 03:18 40.31656 -111.96308 9000 ft 102 kts 333°
2026-04-24 03:18 40.32327 -111.96604 9000 ft 102 kts 333°
2026-04-24 03:18 40.32999 -111.96901 9000 ft 102 kts 333°
2026-04-24 03:18 40.33669 -111.97196 9000 ft 102 kts 333°
2026-04-24 03:19 40.34337 -111.97491 9000 ft 102 kts 333°
2026-04-24 03:19 40.35010 -111.97788 9000 ft 102 kts 333°
2026-04-24 03:19 40.35681 -111.98084 9000 ft 102 kts 333°
2026-04-24 03:19 40.36352 -111.98380 9000 ft 102 kts 333°
2026-04-24 03:20 40.37023 -111.98676 9000 ft 102 kts 333°
2026-04-24 03:20 40.37694 -111.98973 9000 ft 102 kts 333°
2026-04-24 03:20 40.38364 -111.99269 9000 ft 102 kts 333°
2026-04-24 03:20 40.39035 -111.99565 9000 ft 102 kts 333°
2026-04-24 03:21 40.39705 -111.99861 9000 ft 102 kts 333°
2026-04-24 03:21 40.40377 -112.00158 9000 ft 102 kts 333°
2026-04-24 03:21 40.41047 -112.00453 9000 ft 102 kts 333°
2026-04-24 03:21 40.41717 -112.00750 9000 ft 102 kts 333°
2026-04-24 03:22 40.42077 -112.00909 9000 ft 102 kts 333°
2026-04-24 03:22 40.42518 -112.01104 9000 ft 102 kts 333°
2026-04-24 03:22 40.43165 -112.01390 9000 ft 102 kts 333°
2026-04-24 03:22 40.43754 -112.01650 9000 ft 102 kts 333°
2026-04-24 03:23 40.43882 -112.01706 9000 ft 102 kts 333°
2026-04-24 03:23 40.44554 -112.02003 9000 ft 102 kts 333°
2026-04-24 03:23 40.45226 -112.02300 9000 ft 102 kts 333°
2026-04-24 03:23 40.45897 -112.02597 9000 ft 102 kts 333°
2026-04-24 03:24 40.46568 -112.02894 9000 ft 102 kts 333°
2026-04-24 03:24 40.47239 -112.03190 9000 ft 102 kts 333°
2026-04-24 03:24 40.47910 -112.03487 9000 ft 102 kts 333°
2026-04-24 03:24 40.48581 -112.03784 9000 ft 102 kts 333°
2026-04-24 03:25 40.49252 -112.04080 9000 ft 102 kts 333°
2026-04-24 03:25 40.49915 -112.04374 9000 ft 102 kts 333°
2026-04-24 03:25 40.50586 -112.04670 9000 ft 102 kts 333°
2026-04-24 03:25 40.51257 -112.04968 9000 ft 102 kts 333°
2026-04-24 03:26 40.51929 -112.05265 9000 ft 102 kts 333°
2026-04-24 03:26 40.52599 -112.05561 9000 ft 102 kts 333°
2026-04-24 03:26 40.53275 -112.05843 9002 ft 104 kts 340°
2026-04-24 03:26 40.54031 -112.05742 9004 ft 112 kts
2026-04-24 03:27 40.54798 -112.05535 9001 ft 113 kts
2026-04-24 03:27 40.55565 -112.05326 9000 ft 113 kts
2026-04-24 03:27 40.56332 -112.05117 9000 ft 113 kts
2026-04-24 03:27 40.57101 -112.04907 9000 ft 113 kts
2026-04-24 03:28 40.57868 -112.04697 9000 ft 113 kts
2026-04-24 03:28 40.58635 -112.04488 9000 ft 112 kts
2026-04-24 03:28 40.59401 -112.04337 9001 ft 111 kts 358°
2026-04-24 03:28 40.60166 -112.04214 9001 ft 111 kts 358°
2026-04-24 03:29 40.60932 -112.04093 9000 ft 111 kts 358°
2026-04-24 03:29 40.61698 -112.03971 9000 ft 111 kts 358°
2026-04-24 03:29 40.62463 -112.03850 9000 ft 111 kts 358°
2026-04-24 03:29 40.63229 -112.03728 9000 ft 111 kts 358°
2026-04-24 03:30 40.63993 -112.03607 9000 ft 111 kts 358°
2026-04-24 03:30 40.64755 -112.03484 8970 ft 109 kts 359°
2026-04-24 03:30 40.65491 -112.03359 8961 ft 105 kts 358°
2026-04-24 03:30 40.66199 -112.03237 8985 ft 101 kts 358°
2026-04-24 03:31 40.66903 -112.03112 9011 ft 104 kts 358°
2026-04-24 03:31 40.67629 -112.02988 9009 ft 107 kts 358°
2026-04-24 03:31 40.68365 -112.02866 9006 ft 109 kts 358°
2026-04-24 03:31 40.69121 -112.02744 9003 ft 110 kts 358°
2026-04-24 03:32 40.69878 -112.02676 9002 ft 108 kts 353°
2026-04-24 03:32 40.70635 -112.02641 9001 ft 109 kts 353°
2026-04-24 03:32 40.71391 -112.02607 9000 ft 109 kts 353°
2026-04-24 03:32 40.72148 -112.02573 9000 ft 109 kts 353°
2026-04-24 03:33 40.72906 -112.02539 9000 ft 109 kts 353°
2026-04-24 03:33 40.73665 -112.02505 9000 ft 109 kts 353°
2026-04-24 03:33 40.74423 -112.02471 9000 ft 109 kts 353°
2026-04-24 03:33 40.75182 -112.02437 9000 ft 109 kts 353°
2026-04-24 03:34 40.75939 -112.02403 9000 ft 109 kts 353°
2026-04-24 03:34 40.76698 -112.02369 9000 ft 109 kts 353°
2026-04-24 03:34 40.77446 -112.02335 9000 ft 109 kts 353°
2026-04-24 03:34 40.78204 -112.02302 8998 ft 109 kts 353°
2026-04-24 03:35 40.78969 -112.02267 9060 ft 113 kts 354°
2026-04-24 03:35 40.79801 -112.02242 9052 ft 126 kts 353°
2026-04-24 03:35 40.80677 -112.02228 8987 ft 123 kts 353°
2026-04-24 03:35 40.81513 -112.02207 8943 ft 120 kts 353°
2026-04-24 03:36 40.82336 -112.02184 8660 ft 115 kts 353°
2026-04-24 03:36 40.83137 -112.02158 8284 ft 115 kts 353°
2026-04-24 03:36 40.83932 -112.02133 7908 ft 114 kts 353°
2026-04-24 03:36 40.84721 -112.02108 7533 ft 113 kts 353°
2026-04-24 03:37 40.85511 -112.02189 7167 ft 113 kts 354°
2026-04-24 03:37 40.86279 -112.02344 6800 ft 113 kts 353°
2026-04-24 03:37 40.87066 -112.02506 6421 ft 113 kts 353°
2026-04-24 03:37 40.87810 -112.02786 6091 ft 109 kts 329°
2026-04-24 03:38 40.88386 -112.03371 6005 ft 105 kts 323°
2026-04-24 03:38 40.88953 -112.03976 5998 ft 103 kts 323°
2026-04-24 03:38 40.89464 -112.04525 5995 ft 91 kts 323°
2026-04-24 03:38 40.89943 -112.05041 5982 ft 86 kts 323°
2026-04-24 03:39 40.90401 -112.05535 5987 ft 84 kts 323°
2026-04-24 03:39 40.90848 -112.06017 5994 ft 83 kts 323°
2026-04-24 03:39 40.91297 -112.06500 6002 ft 84 kts 323°
2026-04-24 03:39 40.91762 -112.07001 6014 ft 89 kts 323°
2026-04-24 03:40 40.92251 -112.07527 6015 ft 92 kts 323°
2026-04-24 03:40 40.92584 -112.07885 6011 ft 94 kts 323°
2026-04-24 03:40 40.93331 -112.08452 6000 ft 95 kts
2026-04-24 03:40 40.93781 -112.07911 5997 ft 94 kts 83°
2026-04-24 03:41 40.93607 -112.07094 6010 ft 94 kts 114°
2026-04-24 03:41 40.93451 -112.06558 6007 ft 94 kts 113°
2026-04-24 03:41 40.93215 -112.05744 6003 ft 95 kts 113°
2026-04-24 03:41 40.92978 -112.04924 6001 ft 95 kts 113°
2026-04-24 03:42 40.92741 -112.04106 6000 ft 95 kts 113°
2026-04-24 03:42 40.92502 -112.03290 6000 ft 95 kts 116°
2026-04-24 03:42 40.92047 -112.02672 6004 ft 95 kts 144°
2026-04-24 03:42 40.91533 -112.02124 6002 ft 95 kts 143°
2026-04-24 03:43 40.91017 -112.01574 6001 ft 95 kts 144°
2026-04-24 03:43 40.90468 -112.01089 6001 ft 95 kts 162°
2026-04-24 03:43 40.89821 -112.00918 6003 ft 95 kts 176°
2026-04-24 03:43 40.89153 -112.00863 5931 ft 95 kts 179°
2026-04-24 03:44 40.88495 -112.00802 5788 ft 95 kts 178°
2026-04-24 03:44 40.87850 -112.00740 5652 ft 91 kts 178°
2026-04-24 03:44 40.87222 -112.00666 5498 ft 90 kts 176°
2026-04-24 03:44 40.86610 -112.00587 5398 ft 86 kts 177°
2026-04-24 03:45 40.86019 -112.00516 5315 ft 84 kts 177°
2026-04-24 03:45 40.85447 -112.00447 5264 ft 82 kts 177°
2026-04-24 03:45 40.84855 -112.00383 5138 ft 87 kts 178°
2026-04-24 03:45 40.84256 -112.00326 5000 ft 89 kts 178°
2026-04-24 03:46 40.83630 -112.00266 4861 ft 89 kts 178°
2026-04-24 03:46 40.83035 -112.00208 4786 ft 85 kts 178°
2026-04-24 03:46 40.82435 -112.00132 4654 ft 88 kts 176°
2026-04-24 03:46 40.81816 -112.00031 4493 ft 91 kts 175°
2026-04-24 03:47 40.81194 -111.99940 4359 ft 88 kts 179°
2026-04-24 03:47 40.80632 -111.99906 4245 ft 70 kts 177°
2026-04-24 03:47 40.80244 -111.99861 4231 ft 32 kts 176°
2026-04-24 03:47 40.80148 -111.99847 4231 ft 11 kts 172°
2026-04-24 03:48 40.80046 -111.99833 4231 ft 19 kts 174°
2026-04-24 03:48 40.79902 -111.99821 4231 ft 23 kts 176°
2026-04-24 03:48 40.79813 -111.99807 4231 ft 7 kts 166°
2026-04-24 03:48 40.79769 -111.99786 4231 ft 11 kts 179°
2026-04-24 03:49 40.79714 -111.99770 4231 ft 3 kts 104°
2026-04-24 03:49 40.79737 -111.99746 4231 ft 10 kts 14°
2026-04-24 03:49 40.79771 -111.99728 4231 ft 0 kts 24°
2026-04-24 03:49 40.79794 -111.99715 4231 ft 3 kts 27°
2026-04-24 03:50 40.79841 -111.99659 4231 ft 9 kts 61°
2026-04-24 03:50 40.79846 -111.99611 4231 ft 2 kts 119°
2026-04-24 03:50 40.79826 -111.99593 4231 ft 7 kts 190°
2026-04-24 03:50 40.79782 -111.99593 4231 ft 5 kts 174°
2026-04-24 03:51 40.79693 -111.99580 4231 ft 15 kts 174°
2026-04-24 03:51 40.79629 -111.99574 4231 ft 5 kts 176°
2026-04-24 03:51 40.79606 -111.99572 4231 ft 5 kts 176°
2026-04-24 03:51 40.79523 -111.99562 4231 ft 15 kts 174°
2026-04-24 03:52 40.79425 -111.99551 4231 ft 15 kts 175°
2026-04-24 03:52 40.79322 -111.99539 4231 ft 12 kts 175°
2026-04-24 03:52 40.79233 -111.99528 4231 ft 5 kts 174°
2026-04-24 03:52 40.79199 -111.99523 4231 ft 6 kts 174°
2026-04-24 03:53 40.79164 -111.99502 4231 ft 6 kts 115°
2026-04-24 03:53 40.79162 -111.99444 4231 ft 9 kts 85°
2026-04-24 03:53 40.79168 -111.99339 4231 ft 14 kts 85°
2026-04-24 03:53 40.79176 -111.99201 4231 ft 16 kts 85°
2026-04-24 03:54 40.79183 -111.99078 4231 ft 11 kts 86°
2026-04-24 03:54 40.79191 -111.98958 4231 ft 15 kts 85°
2026-04-24 03:54 40.79200 -111.98801 4231 ft 17 kts 85°
2026-04-24 03:54 40.79203 -111.98747 4231 ft 2 kts 85°
2026-04-24 03:55 40.79205 -111.98711 4231 ft 6 kts 86°
2026-04-24 03:55 40.79209 -111.98645 4231 ft 5 kts 79°
2026-04-24 03:55 40.79240 -111.98615 4231 ft 8 kts 356°
2026-04-24 03:55 40.79268 -111.98618 4231 ft 3 kts 354°
2026-04-24 03:56 40.79304 -111.98621 4231 ft 6 kts 19°
2026-04-24 03:56 40.79312 -111.98605 4231 ft 0 kts 73°
2026-04-24 03:57 40.79312 -111.98604 4231 ft 0 kts 73°
2026-04-24 03:57 40.79326 -111.98566 4231 ft 0 kts 46°
2026-04-24 03:57 40.79330 -111.98561 4231 ft 4 kts 46°
2026-04-24 03:58 40.79370 -111.98506 4231 ft 8 kts 46°
2026-04-24 03:58 40.79389 -111.98471 4231 ft 3 kts 62°
2026-04-24 03:58 40.79400 -111.98432 4231 ft 4 kts 75°
2026-04-24 03:58 40.79401 -111.98429 4231 ft 0 kts 75°